Location: Byhalia Creek
(34.8270°N, 89.8040°W)
Time: 07:47:23
(UTC+00:00)

NOSS 3-1 (A) - Pass Details

Date: 22 April 2026
Orbit: 613 x 1593 km, 63.4° (Epoch: 10 January)

Event Time Altitude Azimuth Distance (km) Brightness Sun altitude
Rises 04:18:09 0° 331° (NNW) 3,927 7.6 -37.4°
Reaches altitude 10° 04:20:39 10° 334° (NNW) 3,095 6.8 -37.6°
Enters shadow 04:27:02 61° 12° (NNE) 1,502 4.4 -38.3°
